Change the Weather History Date:

Tuesday, December 3, 2013

  Actual Average (KAKO) Record (KAKO)
Temperature  
Mean Temperature 30 °F 30 °F  
Max Temperature 47 °F 42 °F 80 °F (1941)
Min Temperature 14 °F 19 °F -1 °F (1955)
Degree Days  
Heating Degree Days 34    
Month to date heating degree days  
Cooling Degree Days 0    
Month to date cooling degree days  
Moisture  
Dew Point 18 °F    
Average Humidity 66    
Maximum Humidity 79    
Minimum Humidity 43    
Precipitation  
Precipitation 0.00 in 0.02 in 0.37 in (1953)
Month to date precipitation 0.06  
Year to date precipitation 16.40  
Sea Level Pressure  
Sea Level Pressure 29.61 in    
Wind  
Wind Speed 8 mph (North)    
Max Wind Speed 37 mph    
Max Gust Speed 44 mph    
Visibility 10 miles    
Events Snow    
T = Trace of Precipitation, MM = Missing Value Source: NWS Daily Summary

Daily Weather History Graph

Daily Weather History Graph

Search for Another Location

Airport or City:

Trip Planner

Search our weather history database for the weather conditions in past years. The results will help you decide how hot, cold, wet, or windy it might be!

Date:

Astronomy

Dec. 03, 2013 Rise Set
Actual Time 7:01 AM MST 4:29 PM MST
Civil Twilight 6:30 AM MST 4:59 PM MST
Nautical Twilight 5:56 AM MST 5:33 PM MST
Astronomical Twilight 5:24 AM MST 6:06 PM MST
Moon 7:32 AM MST (12/3) 5:35 PM MST (12/3)
Length of Visible Light 10h 28m
Length of Day
9h 28m
New Moon, 1% of the Moon is Illuminated
Dec 3
New Moon
Dec 9
First Quarter
Dec 17
Full
Dec 25
Last Quarter
Jan 1
New

Hourly Weather History & Observations

Time (MST) Temp. Windchill Dew Point Humidity Pressure Visibility Wind Dir Wind Speed Gust Speed Precip Events Conditions
12:15 AM 36.1 °F - 23.9 °F 61% 29.57 in 10.0 mi Calm Calm - N/A   Clear
12:35 AM 34.0 °F - 23.0 °F 64% 29.56 in 10.0 mi Calm Calm - N/A   Clear
12:55 AM 34.9 °F - 23.2 °F 62% 29.56 in 10.0 mi Calm Calm - N/A   Clear
1:15 AM 32.9 °F 28.5 °F 23.0 °F 67% 29.56 in 10.0 mi WSW 4.6 mph - N/A   Clear
1:35 AM 33.8 °F - 23.7 °F 67% 29.57 in 10.0 mi Calm Calm - N/A   Clear
1:55 AM 33.6 °F 28.4 °F 23.0 °F 65% 29.57 in 10.0 mi WNW 5.8 mph - N/A   Clear
2:15 AM 31.6 °F - 22.6 °F 69% 29.57 in 10.0 mi Calm Calm - N/A   Clear
2:35 AM 34.2 °F 31.2 °F 21.9 °F 61% 29.56 in 10.0 mi NE 3.5 mph - N/A   Clear
2:55 AM 32.0 °F - 23.0 °F 69% 29.57 in 10.0 mi Calm Calm - N/A   Clear
3:15 AM 33.3 °F - 21.7 °F 63% 29.57 in 10.0 mi Calm Calm - N/A   Clear
3:35 AM 32.4 °F 26.9 °F 21.9 °F 65% 29.55 in 10.0 mi NE 5.8 mph - N/A   Clear
3:55 AM 28.2 °F 23.1 °F 21.2 °F 75% 29.54 in 10.0 mi ENE 4.6 mph - N/A   Clear
4:15 AM 31.8 °F 28.5 °F 22.6 °F 69% 29.53 in 10.0 mi ENE 3.5 mph - N/A   Clear
4:35 AM 31.6 °F - 22.6 °F 69% 29.53 in 10.0 mi Calm Calm - N/A   Clear
4:55 AM 28.9 °F 20.4 °F 21.7 °F 74% 29.51 in 10.0 mi East 9.2 mph - N/A   Clear
5:15 AM 27.0 °F 23.0 °F 21.4 °F 79% 29.51 in 10.0 mi South 3.5 mph - N/A   Clear
5:35 AM 28.8 °F - 21.9 °F 76% 29.51 in 10.0 mi Calm Calm - N/A   Clear
5:55 AM 29.1 °F - 22.1 °F 75% 29.50 in 10.0 mi Calm Calm - N/A   Clear
6:15 AM 29.7 °F - 22.1 °F 73% 29.52 in 10.0 mi Calm Calm - N/A   Clear
6:35 AM 32.7 °F - 22.5 °F 66% 29.51 in 10.0 mi Calm Calm - N/A   Clear
6:55 AM 30.6 °F - 22.3 °F 71% 29.51 in 10.0 mi Calm Calm - N/A   Clear
7:15 AM 29.1 °F 25.4 °F 22.5 °F 76% 29.51 in 10.0 mi East 3.5 mph - N/A   Clear
7:35 AM 30.2 °F - 22.6 °F 73% 29.51 in 10.0 mi Calm Calm - N/A   Clear
7:55 AM 33.3 °F - 23.0 °F 66% 29.51 in 10.0 mi Calm Calm - N/A   Clear
8:15 AM 36.1 °F - 24.8 °F 63% 29.52 in 10.0 mi Calm Calm - N/A   Clear
8:35 AM 36.7 °F 32.9 °F 26.2 °F 66% 29.52 in 10.0 mi NE 4.6 mph - N/A   Scattered Clouds
8:55 AM 38.3 °F 35.9 °F 25.9 °F 61% 29.52 in 10.0 mi NE 3.5 mph - N/A   Mostly Cloudy
9:15 AM 40.3 °F - 25.0 °F 54% 29.53 in 10.0 mi Calm Calm - N/A   Overcast
9:35 AM 42.4 °F - 25.2 °F 50% 29.52 in 10.0 mi Calm Calm - N/A   Mostly Cloudy
9:55 AM 43.9 °F - 24.8 °F 47% 29.53 in 10.0 mi Calm Calm - N/A   Scattered Clouds
10:15 AM 45.7 °F - 25.2 °F 45% 29.52 in 10.0 mi Calm Calm - N/A   Scattered Clouds
10:35 AM 47.1 °F - 25.3 °F 43% 29.53 in 10.0 mi North 11.5 mph 19.6 mph N/A   Scattered Clouds
10:55 AM 46.8 °F - 28.0 °F 48% 29.51 in 10.0 mi North 20.7 mph 25.3 mph N/A   Clear
11:15 AM 42.8 °F 33.8 °F 29.3 °F 59% 29.51 in 10.0 mi North 21.9 mph 28.8 mph N/A   Clear
11:35 AM 40.8 °F 30.0 °F 28.8 °F 62% 29.52 in 10.0 mi North 27.6 mph 32.2 mph N/A   Scattered Clouds
11:55 AM 37.4 °F 25.4 °F 26.6 °F 65% 29.53 in 10.0 mi North 27.6 mph 35.7 mph N/A   Scattered Clouds
12:15 PM 36.0 °F 23.2 °F 25.2 °F 65% 29.53 in 10.0 mi North 28.8 mph 36.8 mph N/A   Scattered Clouds
12:35 PM 34.3 °F 20.6 °F 24.1 °F 66% 29.53 in 10.0 mi North 31.1 mph 39.1 mph N/A   Clear
12:55 PM 31.8 °F 16.9 °F 21.9 °F 67% 29.54 in 10.0 mi North 32.2 mph 42.6 mph N/A   Scattered Clouds
1:15 PM 30.4 °F 15.2 °F 21.2 °F 69% 29.53 in 10.0 mi North 31.1 mph 42.6 mph N/A   Clear
1:35 PM 29.5 °F 12.9 °F 19.9 °F 68% 29.54 in 10.0 mi North 36.8 mph 43.7 mph N/A   Clear
1:55 PM 28.9 °F 12.8 °F 17.6 °F 63% 29.54 in 10.0 mi North 33.4 mph 43.7 mph N/A   Scattered Clouds
2:15 PM 27.5 °F 11.5 °F 16.3 °F 63% 29.54 in 10.0 mi North 29.9 mph 41.4 mph N/A   Scattered Clouds
2:35 PM 25.9 °F 8.6 °F 14.5 °F 62% 29.55 in 10.0 mi North 33.4 mph 39.1 mph N/A   Mostly Cloudy
2:55 PM 25.0 °F 9.9 °F 13.8 °F 63% 29.57 in 10.0 mi North 23.0 mph 36.8 mph N/A   Overcast
3:15 PM 24.1 °F 6.9 °F 13.6 °F 64% 29.58 in 10.0 mi North 29.9 mph 36.8 mph N/A   Overcast
3:35 PM 23.7 °F 7.5 °F 13.1 °F 64% 29.59 in 10.0 mi NNE 25.3 mph 29.9 mph N/A   Overcast
3:55 PM 23.5 °F 7.6 °F 13.3 °F 65% 29.62 in 10.0 mi NNE 24.2 mph 31.1 mph N/A   Overcast
4:15 PM 22.8 °F 8.1 °F 13.1 °F 66% 29.64 in 10.0 mi North 19.6 mph 28.8 mph N/A   Overcast
4:35 PM 22.1 °F 7.2 °F 13.1 °F 68% 29.65 in 10.0 mi North 19.6 mph 26.5 mph N/A   Overcast
4:55 PM 21.2 °F 6.4 °F 12.6 °F 69% 29.66 in 10.0 mi North 18.4 mph 27.6 mph N/A   Overcast
5:15 PM 20.8 °F 5.9 °F 12.2 °F 69% 29.67 in 10.0 mi North 18.4 mph 24.2 mph N/A   Overcast
5:35 PM 20.1 °F 5.4 °F 11.3 °F 69% 29.70 in 10.0 mi North 17.3 mph 24.2 mph N/A   Overcast
5:55 PM 19.8 °F 7.7 °F 10.6 °F 68% 29.71 in 10.0 mi North 11.5 mph 24.2 mph N/A   Overcast
6:15 PM 19.2 °F 5.8 °F 9.5 °F 66% 29.73 in 10.0 mi North 13.8 mph - N/A   Overcast
6:35 PM 19.0 °F 4.0 °F 9.7 °F 67% 29.73 in 10.0 mi North 17.3 mph 25.3 mph N/A   Overcast
6:55 PM 18.5 °F 4.3 °F 8.6 °F 65% 29.73 in 10.0 mi North 15.0 mph 19.6 mph N/A   Overcast
7:15 PM 18.5 °F 3.3 °F 9.1 °F 67% 29.76 in 10.0 mi North 17.3 mph 21.9 mph N/A   Overcast
7:35 PM 18.3 °F 4.1 °F 7.9 °F 64% 29.76 in 10.0 mi North 15.0 mph 18.4 mph N/A   Overcast
7:55 PM 17.6 °F 3.2 °F 9.1 °F 69% 29.76 in 7.0 mi North 15.0 mph - N/A Snow Light Snow
8:15 PM 17.6 °F 1.7 °F 8.6 °F 68% 29.78 in 10.0 mi North 18.4 mph - N/A   Overcast
8:35 PM 16.7 °F 1.5 °F 7.7 °F 68% 29.76 in 10.0 mi North 16.1 mph - N/A   Overcast
8:55 PM 16.5 °F 1.3 °F 9.9 °F 75% 29.78 in 7.0 mi North 16.1 mph - N/A Snow Light Snow
9:15 PM 15.8 °F 0.9 °F 9.7 °F 77% 29.77 in 7.0 mi North 15.0 mph - N/A Snow Light Snow
9:35 PM 15.6 °F -0.9 °F 9.0 °F 75% 29.77 in 10.0 mi North 18.4 mph - N/A   Overcast
9:55 PM 15.4 °F -0.6 °F 7.9 °F 72% 29.75 in 10.0 mi NNE 17.3 mph 24.2 mph N/A   Overcast
10:15 PM 15.6 °F 2.5 °F 7.0 °F 69% 29.77 in 10.0 mi North 11.5 mph - N/A   Overcast
10:35 PM 15.3 °F -1.3 °F 5.9 °F 67% 29.76 in 10.0 mi North 18.4 mph 25.3 mph N/A   Overcast
10:55 PM 15.1 °F -1.1 °F 5.9 °F 67% 29.77 in 10.0 mi North 17.3 mph 21.9 mph N/A   Overcast
11:15 PM 14.9 °F -0.3 °F 5.4 °F 66% 29.78 in 10.0 mi North 15.0 mph - N/A   Overcast
11:35 PM 14.7 °F 0.7 °F 6.8 °F 71% 29.76 in 10.0 mi North 12.7 mph - N/A Snow Light Snow
11:55 PM 14.4 °F 1.6 °F 5.5 °F 68% 29.79 in 7.0 mi North 10.4 mph - N/A Snow Light Snow